Regional Weather Roundup
Issued by NWS

Home | Current Version | Previous Version | Text Only | Print | Product List | Glossary Off
Versions: 1 2 3 4 5 6 7 8 9 10 11 12 13 14 15 16 17 18 19 20 21 22 23 24 25 26 27 28 29 30 31 32 33 34 35 36 37 38 39 40 41 42 43 44 45 46 47 48 49 50

000
ASUS43 KLOT 202309
RWRIL

ILLINOIS REGIONAL WEATHER ROUNDUP
NATIONAL WEATHER SERVICE CHICAGO/ROMEOVILLE IL
600 PM CDT THU JUL 20 2017

NOTE: "FAIR" INDICATES FEW OR NO CLOUDS BELOW 12,000 FEET WITH NO
SIGNIFICANT WEATHER AND/OR OBSTRUCTIONS TO VISIBILITY.

* THESE STATIONS ARE NOT UNDER NWS QUALITY CONTROL. THEY ALSO MAY NOT
  REPORT WEATHER SUCH AS PRECIPITATION OR FOG.

ILZ001-002-007-009-015-016-024-210000-
NORTHWEST ILLINOIS

CITY           SKY/WX    TMP DP  RH WIND       PRES   REMARKS
MOLINE         SUNNY     93  76  57 CALM      29.92F HX 105
STERLING*      CLOUDY    85  78  80 NE6       29.95F HX  96
SAVANNA*       CLOUDY    85  77  78 NE6       29.95F HX  95
$$

ILZ003-004-008-010-011-017-018-210000-
NORTH CENTRAL ILLINOIS

CITY           SKY/WX    TMP DP  RH WIND       PRES   REMARKS
ROCKFORD       MOSUNNY   89  76  65 NW5       29.97F HX 100
FREEPORT*      SUNNY     83  75  76 CALM      29.99R HX  91
ROCHELLE*      CLOUDY    83  76  81 N3        29.97F HX  91
DE KALB*       CLOUDY    83  77  82 CALM      29.98F HX  91
PERU*          PTSUNNY  N/A N/A N/A NW7       29.95F
$$

ILZ005-006-012>014-019>023-210000-
NORTHEAST ILLINOIS

CITY           SKY/WX    TMP DP  RH WIND       PRES   REMARKS
CHICAGO-OHARE  CLOUDY    82  71  69 E8        29.95F HX  86
CHICAGO-MIDWAY CLOUDY    83  72  69 E8        29.95S HX  88
AURORA         CLOUDY    83  79  88 W3        29.96F HX  94
LANSING*       CLOUDY    81  69  67 NE7       29.96S HX  84
JOLIET*        CLOUDY    86  77  74 NW3       29.96S HX  97
WAUKEGAN       SUNNY     76  70  82 E7        29.96S
DUPAGE AIRPORT MOSUNNY   85  77  77 W5        29.95F HX  95
WHEELING       CLOUDY    78  72  81 E5        29.97F HX  80
MORRIS*        PTSUNNY   85  77  76 CALM      29.95S HX  95
ROMEOVILLE*    CLOUDY    85  75  71 W7        29.96S HX  93
NORTHERLY ISL    N/A     77  69  76 CALM        N/A
$$

LMZ740>746-210000-
SOUTHERN LAKE MICHIGAN

STATION/POSITION SKY/WX   TEMP    WIND        PRES    VSBY  WAVE
                          AIR SEA DIR/SP/G                  HT/PER
                          (F)     (DEG/KT/KT) (MB)    (MI)  (FT/S)
SOUTHERN BUOY              72 72  110/  4/  4 1014.5          2/ 5
WILMETTE HARBOR            74 72  160/  2/  2   N/A           1/ 3
HARRISON CRIB              76      CALM  /  1   N/A
BURNHAM HARBOR             76                   N/A
CALUMET HARBOR             76      60/  6/  7 1014.4S
BURNS HARBOR               76      70/ 10/ 11 1014.9F
MICHIGAN CITY              76      40/  9/ 10   N/A
MICHIGAN CITY 6N           75 74   80/  6/  8   N/A           1/ 2
ST. JOSEPH                 76 75   50/  6/  6 1014.2          1
$$

ILZ025>027-034>036-040-047-049-050-058-095>099-210000-
WEST-CENTRAL ILLINOIS

CITY           SKY/WX    TMP DP  RH WIND       PRES   REMARKS
QUINCY         SUNNY     96  75  50 SW10      29.94F HX 108
GALESBURG*     MOSUNNY   92  79  65 SW6       29.94F HX 108
MACOMB*        SUNNY     92  78  63 SW5       29.95F HX 108
JACKSONVILLE*  SUNNY     94  75  54 SW8       29.94F HX 105
PITTSFIELD*    SUNNY     96  76  52 SW6       29.96F HX 108
$$

ILZ028>032-037-038-041>044-048-051>054-059>061-210000-
CENTRAL ILLINOIS

CITY           SKY/WX    TMP DP  RH WIND       PRES   REMARKS
PONTIAC        PTSUNNY   89  83  80 NW8       29.95S HX 111
BLOOMINGTON    MOSUNNY   93  78  61 W13       29.96F HX 108
DECATUR        SUNNY     92  75  57 SW10      29.95F HX 103
PEORIA         MOSUNNY   94  80  64 W6        29.93F HX 113
LACON*         SUNNY     91  80  70 NW6       29.93S HX 108
LINCOLN*       SUNNY     95  80  63 SW6       29.93F HX 114
SPRINGFIELD    SUNNY     95  79  59 SW12      29.94F HX 112
TAYLORVILLE    SUNNY     92  74  56 SW6       29.96F HX 101
$$

ILZ033-039-045-046-055>057-062-063-210000-
EAST-CENTRAL ILLINOIS

CITY           SKY/WX    TMP DP  RH WIND       PRES   REMARKS
RANTOUL*       SUNNY     92  79  64 W6        29.96S HX 109
MATTOON        MOSUNNY   92  75  57 SW6       29.96F HX 103
PARIS*         CLOUDY    89  77  67 W7        29.97F HX 102
$$

ILZ079-100>102-210000-
SOUTHWEST ILLINOIS

CITY           SKY/WX    TMP DP  RH WIND       PRES   REMARKS
ALTON          MOSUNNY   95  72  46 SW6       29.96F HX 103
BELLEVILLE     SUNNY     95  74  51 SW9       29.97F HX 105
CAHOKIA*       SUNNY     97  73  45 S9        29.95F HX 107
SPARTA*        SUNNY     93  74  54 S8        30.00F HX 103
$$

ILZ064>066-069>071-074>076-080>082-084>086-088>090-092>094-210000-
SOUTH-CENTRAL ILLINOIS

CITY           SKY/WX    TMP DP  RH WIND       PRES   REMARKS
CARBONDALE     SUNNY     90  77  65 S7        30.00F HX 103
CAIRO*         SUNNY     91  75  58 S5        30.01S HX 101
EFFINGHAM*     SUNNY     94  73  49 SW12      29.98F HX 103
MARION         MOSUNNY   93  73  52 S12       30.01F HX 102
MT. VERNON     MOSUNNY   94  72  48 S13       29.99F HX 102
CENTRALIA*     SUNNY     95  72  48 SW9       29.98S HX 103
SALEM*         SUNNY     95  72  46 SW8       29.98S HX 103
METROPOLIS*    CLOUDY    93  75  56 SW6       30.02S HX 104
$$

ILZ067-068-072-073-078-083-087-091-210000-
SOUTHEAST ILLINOIS

CITY           SKY/WX    TMP DP  RH WIND       PRES   REMARKS
LAWRENCEVILLE  MOSUNNY   92  76  59 SW12      29.97F HX 104
FLORA*         MOSUNNY   94  75  53 SW12      29.97F HX 105
FAIRFIELD*     MOSUNNY   91  76  60 S5        29.97F HX 103
HARRISBURG*    MOSUNNY   92  77  62 SW3       30.00F HX 106
ROBINSON*      SUNNY     90  77  66 SW9       29.97F HX 102
CARMI*         MOSUNNY   90  78  69 SW6       29.99F HX 104
$$

ABBREVIATIONS USED IN REMARKS
   TC - TEMPERATURE IN CELSIUS
  WCI - WIND CHILL INDEX
   HX - HEAT INDEX
  VSB - VISIBILITY
$$




USA.gov is the U.S. government's official web portal to all federal, state and local government web resources and services.